Regional Weather Roundup
Issued by NWS

Home | Current Version | Previous Version | Graphics & Text | Print | Product List | Glossary On
Versions: 1 2 3 4 5 6 7 8 9 10 11 12 13 14 15 16 17 18 19 20 21 22 23 24 25 26 27
000
ASUS45 KCYS 230910
RWRWY

WYOMING REGIONAL WEATHER ROUNDUP
NATIONAL WEATHER SERVICE CHEYENNE WY
300 AM MDT MON OCT 23 2017

NOTE:  "FAIR" INDICATES FEW OR NO CLOUDS BELOW 12,000 FEET
WITH NO SIGNIFICANT WEATHER AND/OR OBSTRUCTIONS TO VISIBILITY.

WYZ001-231000-
YELLOWSTONE NATIONAL PARK

CITY           SKY/WX    TMP DP  RH WIND       PRES   REMARKS
LK YELLOWSTONE   N/A     30  21  69 VRB7      30.45R WCI  23
W YELLOWSTONE  NOT AVBL

$$
WYZ002>013-054>058-071-098>099-231000-
NORTHERN WYOMING

CITY           SKY/WX    TMP DP  RH WIND       PRES   REMARKS
JACKSON        FAIR      43  28  55 VRB3      30.42R
CODY           FAIR      46  19  34 NW8       30.30R
GREYBULL       FAIR      49  17  28 N17       30.25R
WORLAND        CLOUDY    44  28  53 CALM      30.27R
SHERIDAN       FAIR      44  23  43 NW16      30.24R
BUFFALO        FAIR      41  21  44 N13       30.24R
GILLETTE       FAIR      44  18  35 NW23G31   30.21R
HULETT         FAIR      46  19  34 NW15G28   30.18R
NEWCASTLE      FAIR      43  19  39 NW15      30.17R

$$
WYZ014>020-022>026-101>103-231000-
CENTRAL WYOMING

CITY           SKY/WX    TMP DP  RH WIND       PRES   REMARKS
BIG PINEY      CLOUDY    45  30  55 N12       30.41S
PINEDALE       FAIR      41  30  65 NW17      30.40S
DUBOIS         FAIR      37  30  75 N21G30    30.32R WCI  27
LANDER         FAIR      45  31  58 SE5       30.27R
RIVERTON       FAIR      43  30  60 NE12      30.26R
CASPER         CLOUDY    41  34  76 N5        30.28R
DOUGLAS        LGT RAIN  43  31  62 N23G33    30.26R

$$
WYZ021-027>030-104>119-231000-
SOUTHERN WYOMING

CITY           SKY/WX    TMP DP  RH WIND       PRES   REMARKS
EVANSTON       MOCLDY    45  31  58 W10       30.49R
KEMMERER       FAIR      43  32  65 W26G32    30.43S
FORT BRIDGER   FAIR      47  32  55 W13       30.49R
ROCK SPRINGS   FAIR      46  29  51 W25G31    30.39S
DIXON          PTSUNNY   49  30  47 W5        30.43R
RAWLINS        FAIR      47  29  49 W30G43    30.31R
SARATOGA       PTSUNNY   46  30  53 W20G28    30.38S
LARAMIE        FAIR      47  26  44 W29G39    30.27F
CHEYENNE       FAIR      53  28  38 NW28G40   30.20S
TORRINGTON     MOCLDY    47  35  63 N29G44    30.21R
PINE BLUFFS    FAIR      55  28  35 NW24G31   30.19R

$$




USA.gov is the U.S. government's official web portal to all federal, state and local government web resources and services.